Content
SEND FEEDBACK

Daily
Averages
Monthly
Summary
Mexico

LAGUNA BACALAR, QUINTANA ROO


Home > North America > Mexico > Quintana Roo
Elevation: 62 feet     Latitude: 18 45N     Longitude: 088 20W

WEATHER
 
SELECT A DAY
Number of Records: 124,301;   Date Range: 1/1/95 - 9/29/14
 
SHARE

PRINT THIS DATA

[ ← Previous Day ]
WEATHER ALMANAC - NOVEMBER 22, 2013
[ Next Day → ]
[ °C ]   °F
Weather ElementAverageHighLow
Temperature79.8 °F88 °F (11:45 am)75 °F (5:45 am)
Dewpoint73.5 °F77 °F (9:42 am)69.8 °F (12:42 pm)
Humidity80.1 %96 % (5:45 am)51 % (11:45 am)
Barometer29.96 in30.02 in (8:45 am)29.91 in (3:40 pm)
Wind Speed1.7 mph6.9 mph (9:42 am)
Weather ElementAverage
Visibility6.5 mi
Wind DirectionNNE (32.7 °)

Weather ElementTotal
Precipitation---
Cooling Degree Days16.5 (Base 65)
Growing Degree Days31.5 (Base 50)
Averaged from 22 records on November 22, 2013
WEATHER CONDITIONS BREAKOUT
WIND DIRECTION BREAKOUT
WEATHER BY HOUR - NOVEMBER 22, 2013
[ °C ]   °F
Local TimeTemperatureDewpointHumidityBarometerVisibilityWind DirectionWind SpeedGust SpeedPrecipitationEventsConditions
5:45 AM75.0 °F74.0 °F96 %29.97 in6.0 miNorth2.2 mphScattered Clouds
6:40 AM77.0 °F71.6 °F83 %29.97 in7.0 miCalmScattered Clouds
7:40 AM77.0 °F71.6 °F83 %29.99 in7.0 miCalmScattered Clouds
8:40 AM78.8 °F73.4 °F83 %30.00 in7.0 miCalmScattered Clouds
8:45 AM82.0 °F76.0 °F78 %30.02 in6.0 miNorth4.5 mphScattered Clouds
9:42 AM84.2 °F77.0 °F79 %30.00 in7.0 miNNE (30°)6.9 mphScattered Clouds
10:43 AM84.2 °F77.0 °F79 %30.00 in7.0 miCalmScattered Clouds
11:40 AM84.2 °F77.0 °F79 %29.98 in7.0 miNorthScattered Clouds
11:45 AM88.0 °F72.0 °F51 %29.98 in6.0 miENE (60°)6.7 mphPartly Cloudy
12:42 PM77.0 °F69.8 °F78 %29.95 in6.0 miCalmRainLight Rain
1:41 PM78.8 °F71.6 °F78 %29.92 in7.0 miCalmOvercast
2:40 PM78.8 °F71.6 °F78 %29.93 in7.0 miCalmOvercast
2:50 PM82.0 °F77.0 °F82 %29.93 in6.0 miWNW (300°)2.2 mphRainLight Drizzle
3:40 PM78.8 °F71.6 °F78 %29.91 in7.0 miCalmOvercast
4:40 PM78.8 °F71.6 °F78 %29.91 in7.0 miCalmOvercast
5:40 PM78.8 °F71.6 °F78 %29.94 in7.0 miCalmOvercast
5:50 PM80.0 °F77.0 °F89 %29.95 in5.0 miNNW (330°)4.5 mphMostly Cloudy
6:40 PM78.8 °F71.6 °F78 %29.95 in7.0 miCalmMostly Cloudy
7:40 PM78.8 °F71.6 °F78 %29.96 in7.0 miCalmMostly Cloudy
8:40 PM78.8 °F71.6 °F78 %29.96 in7.0 miCalmMostly Cloudy
8:50 PM78.0 °F75.0 °F88 %29.98 in5.0 miNorth4.5 mphScattered Clouds
11:50 PM77.0 °F75.0 °F91 %29.96 in5.0 miNorth4.5 mphThunderstormThunderstorm
Hourly data recorded from MMCM, located miles away from Laguna Bacalar, Quintana Roo







STORIES FROM OUR PARTNERS